Location: La Fredeussais
(48.1780°N, 1.3980°W)
Time: 01:37:09
(UTC+00:00)

Cosmos 1900 - Pass Details

Date: 09 May 2021
Orbit: 688 x 733 km, 66.1° (Epoch: 13 June)

Event Time Altitude Azimuth Distance (km) Brightness Sun altitude
Exits shadow 23:18:45 68° 168° (SSE) 784 4.2 -23.5°
Maximum altitude 23:19:14 74° 123° (ESE) 758 4.3 -23.5°
Drops below altitude 10° 23:24:17 10° 39° (NE) 2,214 7.4 -23.7°
Sets 23:26:38 0° 38° (NE) 3,131 8.3 -23.7°
